Location: Catacaguana
(10.4120°N, 66.7591°W)
Time: 12:35:09
(UTC+00:00)

Cosmos 1954 Rocket - Visible Passes

Search period start: 26 September 2022 00:00
Search period end: 06 October 2022 00:00
Orbit: 752 x 780 km, 74.0° (Epoch: 25 September)

Date Brightness Start Highest point End Pass type
(mag) Time Alt. Az. Time Alt. Az. Time Alt. Az.
26 Sep 6.8 09:07:26 10° NNE 09:11:16 20° ENE 09:15:07 10° ESE visible
26 Sep 7.1 23:28:34 10° WSW 23:31:10 14° WNW 23:33:48 10° NW visible
27 Sep 6.2 22:49:08 10° SW 22:53:34 29° WNW 22:57:59 10° NNW visible
28 Sep 4.2 09:32:46 10° N 09:38:01 78° ENE 09:43:19 10° SSE visible
29 Sep 5.5 08:55:38 10° N 09:00:28 37° ENE 09:05:20 10° SE visible
30 Sep 6.6 08:19:16 10° NNE 08:22:53 19° ENE 08:26:30 10° ESE visible
30 Sep 7.0 22:39:48 10° WSW 22:42:47 15° WNW 22:45:46 10° NW visible
01 Oct 4.1 09:22:02 10° NNW 09:27:10 56° WSW 09:32:20 10° S visible
02 Oct 4.2 08:44:24 10° N 08:49:38 71° ENE 08:54:55 10° SSE visible
03 Oct 5.5 08:07:21 10° NNE 08:12:06 34° ENE 08:16:51 10° SE visible
03 Oct 5.6 09:50:59 10° WNW 09:53:45 14° W 09:56:32 10° SW visible
04 Oct 6.5 07:33:33 16° ENE 07:34:29 17° ENE 07:37:49 10° ESE visible
04 Oct 4.8 09:13:59 21° WNW 09:16:17 30° W 09:20:50 10° SSW visible
05 Oct 4.1 08:39:36 54° SW 08:39:36 54° SW 08:44:01 10° S visible
